#timestamp,LO_Frequency,Hit,StdDev 
1508313615.6,286047007.5,N
1508313635.5,286047007.1,N
1508313655.3,286047007.4,N
1508313675.1,286047004.3,N
1508313695.9,286047003.9,N
1508313715.7,286047003.9,N
1508313735.5,286047006.9,N
1508313755.4,286047003.6,N
1508313775.2,286047000.1,N
1508313795.0,286047004.1,N
1508313795.9,286047004.1,N
1508313815.7,286047001.6,N
1508313835.6,286047004.3,N
1508313855.4,286047005.5,N
1508313875.2,286047005.2,N
1508313895.1,286047003.4,N
1508313896.0,286047003.4,N
1508313915.8,286047003.9,N
1508313935.6,286047005.2,N
1508313955.5,286047004.1,N
1508313975.3,286047006.0,N
1508313995.1,286047008.1,N
1508314015.9,286047006.4,N
1508314035.7,286047006.8,N
1508314055.5,286047007.3,N
1508314075.4,286047009.4,Y
1508314095.2,286047009.5,P
1508314115.0,286047003.5,N
1508314115.9,286047003.5,N
1508314135.8,286047004.3,N
1508314155.6,286047005.8,N
1508314175.4,286047004.9,N
1508314195.3,286047007.6,Y
1508314215.1,286046998.8,P
1508314235.8,286047000.7,N
1508314255.7,286046998.7,N
1508314275.5,286046994.0,N
1508314295.3,286046994.6,N
1508314315.2,286046994.5,N
1508314335.9,286046991.5,N
1508314355.7,286046988.6,N
1508314375.6,286046991.4,N
1508314395.4,286046993.0,N
1508314415.2,286046991.4,N
1508314435.0,286046989.5,N
1508314436.0,286046989.5,N
1508314455.8,286046991.4,N
1508314475.6,286046993.2,N
1508314495.4,286046993.8,N
1508314515.3,286046994.0,N
1508314535.1,286046992.9,N
1508314555.8,286046990.3,N
1508314575.7,286046990.8,N
1508314595.5,286046989.5,N
1508314615.3,286046987.8,Y
1508314635.2,286046995.1,P
1508314655.0,286046995.7,P
1508314655.9,286046995.7,P
1508314675.8,286046993.9,Y
1508314695.6,286047002.5,P
1508314715.4,286047002.8,N
1508314735.2,286047000.9,N
1508314755.1,286046999.5,N
1508314756.0,286046999.5,N
1508314775.8,286046999.0,N
1508314795.6,286046998.5,N
1508314815.5,286047001.8,N
1508314835.3,286047005.6,N
1508314855.1,286047001.7,N
1508314875.9,286047004.1,N
1508314895.7,286047000.0,N
1508314915.5,286047002.7,N
1508314935.4,286046997.3,N
1508314955.2,286046999.3,N
1508314975.0,286047002.5,N
1508314975.9,286047002.5,N
1508314995.8,286047001.7,N
1508315015.6,286047001.6,N
1508315035.4,286047003.1,N
1508315055.2,286047005.3,N
1508315075.1,286047006.1,N
1508315076.0,286047006.1,N
1508315095.8,286047005.7,N
1508315115.6,286047003.3,N
1508315135.5,286047005.2,N
1508315155.3,286047008.8,Y
1508315175.1,286047003.9,P
1508315195.9,286047004.8,P
1508315215.7,286047010.5,P
1508315235.5,286047010.9,Y
1508315255.4,286047004.6,P
1508315275.2,286047004.7,P
1508315295.0,286047005.8,P
1508315296.0,286047005.8,Y
1508315315.8,286046998.6,P
1508315335.6,286046997.3,N
1508315355.4,286046998.1,N
1508315375.3,286046996.9,N
1508315395.1,286046994.6,N
1508315415.8,286046991.7,N
1508315435.7,286046994.5,N
1508315455.5,286047000.5,N
1508315475.3,286046999.9,N
1508315495.2,286047003.2,N
1508315515.9,286047001.9,N
1508315535.7,286047004.2,N
1508315555.6,286047006.8,N
1508315575.4,286047003.1,N
1508315595.2,286047003.3,N
1508315615.1,286047003.8,N
1508315616.0,286047003.8,N
1508315635.8,286047004.3,N
1508315655.6,286047002.4,N
1508315675.5,286047000.6,N
1508315695.3,286046999.4,N
1508315715.1,286046999.6,N
1508315735.9,286047000.1,N
1508315755.7,286046998.2,N
1508315775.5,286046999.6,N
1508315795.3,286047000.7,N
1508315815.2,286046997.5,N
1508315835.0,286046994.2,N
1508315835.9,286046994.2,N
1508315855.7,286046992.1,N
1508315875.6,286046996.0,N
1508315895.4,286046995.1,N
1508315915.2,286046993.7,N
1508315935.1,286046992.2,N
1508315936.0,286046992.2,N
1508315955.8,286046990.4,N
1508315975.6,286046989.9,N
1508315995.5,286046991.4,N
1508316015.3,286046988.7,N
1508316035.1,286046991.6,N
1508316055.9,286046991.2,N
1508316075.7,286046990.8,N
1508316095.5,286046988.6,N
1508316115.4,286046990.5,N
1508316135.2,286046990.2,N
1508316155.0,286046994.8,N
1508316155.9,286046994.8,N
1508316175.8,286046994.8,N
1508316195.6,286046992.0,N
1508316215.4,286046993.3,N
1508316235.2,286046991.7,N
1508316255.1,286046992.6,N
1508316256.0,286046992.6,N
1508316275.8,286046990.7,Y
1508316295.7,286046994.5,P
1508316315.5,286046993.7,P
1508316335.3,286046991.9,P
1508316355.2,286046996.4,Y
1508316375.9,286047002.6,P
1508316395.7,286047000.0,N
1508316415.6,286047002.1,N
1508316435.4,286047002.5,N
1508316455.2,286047001.7,N
1508316475.1,286047003.7,N
1508316476.0,286047003.7,N
1508316495.8,286047002.2,N
1508316515.6,286047002.1,N
1508316535.5,286047003.1,N
1508316555.3,286047005.1,N
1508316575.1,286047003.0,N
1508316595.8,286047001.4,N
1508316615.7,286047001.8,N
1508316635.5,286047004.6,N
1508316655.3,286047006.0,N
1508316675.2,286047007.6,N
1508316695.9,286047005.2,N
1508316715.7,286047005.6,N
1508316735.6,286047006.8,N
1508316755.4,286047006.4,N
1508316775.2,286047004.5,N
1508316795.1,286047007.3,N
1508316796.0,286047007.3,N
1508316815.8,286047006.4,N
1508316835.6,286047004.9,N
1508316855.4,286047004.0,N
1508316875.3,286047000.8,N
1508316895.1,286046996.7,N
1508316915.8,286046996.5,N
1508316935.7,286046996.9,N
1508316955.5,286046999.6,N
1508316975.3,286046997.3,N
1508316995.2,286046999.0,N
1508317015.9,286047004.0,N
1508317035.7,286047006.4,N
1508317055.6,286047005.8,N
1508317075.4,286047003.8,N
1508317095.2,286047001.4,N
1508317115.1,286046999.8,N
1508317116.0,286046999.8,N
1508317135.8,286047004.3,N
1508317155.6,286047007.6,N
1508317175.5,286047009.6,N
1508317195.3,286047012.2,Y
